Regional Weather Roundup
Issued by NWS

Home | Current Version | Previous Version | Text Only | Print | Product List | Glossary Off
Versions: 1 2 3 4 5 6 7 8 9 10 11 12 13 14 15 16 17 18 19 20 21 22 23 24 25 26 27 28 29 30 31 32 33 34 35 36 37 38 39 40 41 42 43 44 45 46 47 48 49 50

000
ASUS43 KMPX 012110
RWRMN
WEATHER ROUNDUP FOR MINNESOTA
NATIONAL WEATHER SERVICE TWIN CITIES/CHANHASSEN MN
400 PM CDT MON SEP 01 2014


NOTE: "FAIR" INDICATES FEW OR NO CLOUDS BELOW 12,000 FEET WITH NO
SIGNIFICANT WEATHER AND/OR OBSTRUCTIONS TO VISIBILITY. N/A MEANS
CURRENT SKY AND/OR WEATHER CONDITIONS ARE NOT AVAILABLE.

MNZ060>063-068>070-012200-
   Twin Cities Metro

CITY           SKY/WX    TMP DP  RH WIND       PRES   REMARKS
TWIN CITIES    MOSUNNY   77  55  46 W13       29.75R
ST PAUL        PTSUNNY   77  53  43 NW13      29.75R
CRYSTAL        MOSUNNY   78  52  40 W16G22    29.74R
BLAINE         PTSUNNY   75  55  50 W14       29.75R
LAKEVILLE      MOSUNNY   73  57  56 W13       29.76F
EDEN PRAIRIE   MOSUNNY   78  55  44 W15G21    29.75R
SOUTH ST PAUL  MOSUNNY   77  55  47 NW12      29.75R
LAKE ELMO      FAIR      72  57  60 W9G16     29.76R
$$
MNZ001>005-007-008-013>017-022>024-027-028-012200-
   Northwest Minnesota

CITY           SKY/WX    TMP DP  RH WIND       PRES   REMARKS
BEMIDJI        MOSUNNY   70  49  45 NW10      29.72S
HALLOCK        PTSUNNY   63  54  72 W17       29.71R
ROSEAU         MOSUNNY   73  54  49 W12G17    29.67S
WARROAD        MOSUNNY   72  55  56 W8        29.67S
THIEF RVR FALL PTSUNNY   70  54  56 W10       29.70S
CROOKSTON      PTSUNNY   63  57  82 S5        29.71F
FOSSTON        MOSUNNY   73  57  56 SW9       29.72F
DETROIT LAKES  MOSUNNY   70  52  52 W3        29.76S THUNDER
MOORHEAD       SUNNY     75  55  50 SW10      29.72F
PARK RAPIDS    MOSUNNY   71  49  45 W13       29.74S
MAHNOMEN       TSTM      60  53  77 S6        29.74S
$$
MNZ006-009>011-018-025>026-012200-
   North Central Minnesota

CITY           SKY/WX    TMP DP  RH WIND       PRES   REMARKS
BAUDETTE       MOSUNNY   72  52  49 NW10      29.66F
FLAG ISLAND    MOSUNNY   70  52  52 W5        29.63S
INTL FALLS     MOSUNNY   68  52  56 NW12G21   29.66R
WASKISH        MOSUNNY   72  55  56 SW3       29.69S
BIG FORK       MOSUNNY   72  52  49 W8G17     29.70S
LONGVILLE      MOSUNNY   72  54  53 NW7       29.72S
GRAND RAPIDS   SUNNY     70  48  46 W13G18    29.71S
CRANE LAKE     PTSUNNY   64  57  77 N8        29.66R
ORR            MOSUNNY   66  52  59 W10G16    29.64S
COOK           SUNNY     70  54  56 W10       29.67S
WALKER         FAIR      71  50  47 W10       29.72F
$$
MNZ012-019>021-037-012200-
   Northeast Minnesota

CITY           SKY/WX    TMP DP  RH WIND       PRES   REMARKS
DULUTH         MOSUNNY   72  51  47 W16       29.68S
ELY            PTSUNNY   64  59  82 NW9G17    29.66S
HIBBING        MOSUNNY   72  52  49 W8G17     29.68S
EVELETH        SUNNY     70  50  49 W14G20    29.68S
DULUTH HARBOR  SUNNY     73  55  53 W15       29.66S
TWO HARBORS    PTSUNNY   70  55  60 W7        29.64S
SILVER BAY     SUNNY     70  61  73 W7        29.62F
GRAND MARAIS     N/A     73  57  57 VRB6      29.58R
G MARAIS ARPRT PTSUNNY   66  54  63 W12G18    29.63R
$$
MNZ029>031-032-039>041-046>048-054>057-064-012200-
   West Central Minnesota

CITY           SKY/WX    TMP DP  RH WIND       PRES   REMARKS
FERGUS FALLS   LGT RAIN  66  54  63 W16G22    29.76R
WHEATON        SUNNY     72  55  56 SW5       29.77F
MORRIS         SUNNY     77  55  47 SW5       29.76F
ALEXANDRIA     MOSUNNY   74  55  51 W12G18    29.78F
ELBOW LAKE     FAIR      74  57  55 W9        29.76F
WADENA         MOSUNNY   72  55  56 W5        29.74F
GLENWOOD       SUNNY     73  57  56 W14       29.79S
APPLETON       SUNNY     79  54  41 SW8       29.77F
BENSON         SUNNY     75  55  50 NW8       29.78F
ORTONVILLE     MOSUNNY   79  55  44 SW7       29.76F
MADISON        MOSUNNY   77  59  53 NW5       29.78F
WILLMAR        FAIR      73  55  53 W13       29.80S
$$
MNZ033>034-036-042>043-049>051-058-059-012200-
   Central Minnesota

CITY           SKY/WX    TMP DP  RH WIND       PRES   REMARKS
ST CLOUD       MOSUNNY   77  54  44 W18       29.75S
SAUK CENTRE    FAIR      73  54  49 W10G20    29.77
PAYNESVILLE    MOSUNNY   72  53  51 SW14      29.78F
AITKIN         MOSUNNY   75  52  43 W8        29.71F
PINE RIVER     MOSUNNY   72  52  49 W10       29.77S
BRAINERD       SUNNY     72  48  42 W15G21    29.73F
STAPLES        SUNNY     73  52  46 W12       29.75F
LONG PRAIRIE   FAIR      73  54  49 W12G17    29.77F
LITTLE FALLS   SUNNY     72  50  46 W12G17    29.75F
LITCHFIELD     MOSUNNY   75  55  50 W8G18     29.79S
BUFFALO        SUNNY     75  54  46 W14       29.78R
MAPLE LAKE     MOSUNNY   75  57  53 W10G16    29.77S
$$
MNZ037-044-045-052-053-012200-
   East Central Minnesota

CITY           SKY/WX    TMP DP  RH WIND       PRES   REMARKS
PRINCETON      MOSUNNY   75  55  50 W9        29.75R
MORA           MOSUNNY   72  50  46 W9        29.75R
CAMBRIDGE      MOSUNNY   75  57  53 W14G20    29.73R
RUSH CITY      SUNNY     74  54  50 NW8       29.74R
MOOSE LAKE     MOSUNNY   72  52  49 NW10G16   29.69S
HINCKLEY       CLOUDY    73  52  46 W17       29.73R
CLOQUET        PTSUNNY   72  50  46 W14G20    29.69S
MCGREGOR       MOSUNNY   72  50  46 W9G22     29.72S
$$
MNZ071>073-080-081-089-090-097-098-012200-
   Southwest Minnesota

CITY           SKY/WX    TMP DP  RH WIND       PRES   REMARKS
MONTEVIDEO     SUNNY     79  59  50 NW8       29.79F
GRANITE FALLS  SUNNY     75  58  54 W7        29.81S
CANBY          SUNNY     77  52  41 W12       29.80F
MARSHALL       SUNNY     77  54  44 NW13      29.79F
REDWOOD FALLS  MOSUNNY   78  55  44 W14       29.79F
OLIVIA         SUNNY     77  55  47 NW9       29.79S
PIPESTONE      MOSUNNY   75  57  53 W12G17    29.84S
WINDOM         MOSUNNY   72  61  68 SW3       29.82F
WORTHINGTON    MOSUNNY   75  57  53 W15       29.84F
JACKSON        TSTM      64  55  72 SE5       29.86R
TRACY          MOSUNNY   77  56  48 W8        29.82S
SLAYTON        PTSUNNY   75  56  51 CALM      29.83F
$$
MNZ065>067-074>077-082>085-091>093-012200-
   South Central Minnesota

CITY           SKY/WX    TMP DP  RH WIND       PRES   REMARKS
MANKATO        SUNNY     73  54  49 NW13      29.79S
NEW ULM        MOSUNNY   75  59  57 NW10      29.79S
ST JAMES       MOSUNNY   72  57  60 W3        29.82R
FAIRMONT       PTSUNNY   72  59  64 W7        29.82S
GLENCOE        MOSUNNY   76  56  48 W12G20    29.78R
FARIBAULT      MOSUNNY   79  52  38 W14       29.78S
OWATONNA       SUNNY     73  55  53 W10       29.79R
WASECA         SUNNY     72  52  49 W12       29.81R
ALBERT LEA     MOSUNNY   75  57  53 NW9       29.80R
$$
MNZ078>079-086>088-094>096-012200-
   Southeast Minnesota

CITY           SKY/WX    TMP DP  RH WIND       PRES   REMARKS
ROCHESTER      SUNNY     75  56  51 W15G22    29.79R
RED WING       SUNNY     79  55  44 W13G18    29.73S
STANTON        SUNNY     76  56  49 W13       29.75S
DODGE CENTER   SUNNY     75  55  50 W16       29.79R
WINONA         MOSUNNY   77  55  47 NW13G20   29.74R
AUSTIN         MOSUNNY   75  57  53 W17       29.80R
PRESTON        MOSUNNY   74  63  69 CALM      29.79R
$$
ABBREVIATIONS USED IN REMARKS
   TC - TEMPERATURES IN CELSIUS
  WCI - WIND CHILL INDEX
   HX - HEAT INDEX
  VSB - VISIBILITY
$$



USA.gov is the U.S. government's official web portal to all federal, state and local government web resources and services.